Niamtougou International Airport

Jump to: basic info | weather | frequencies | runways | comments

Related pages: nearby airports | nearby navaids | notams | map

Basic information (top)

Codes: LRL DXNG
Location: lon 9.767330, lat 1.091250, elev 1,515 ft / 462 m msl
Status: medium_airport
Scheduled airline service: no
Links: Wikipedia Mobile

Weather (top)

Current conditions (rec'd 2014/09/01 07:00Z):

DXNG 010700Z 18003KT 150V220 9999 FEW005 22/21 Q1016 NOSIG

Airport forecast (rec'd 2014/09/01 06:51Z):

TAF TAF DXNG 010522Z 0106/0206 20008KT 9999 FEW010 
      BECMG 0108/0110 BKN007 
      TEMPO 0114/0117 4000 TSRA BKN007 FEW016CB PROB30 
      TEMPO 0200/0203 4000 TSRA BKN007 FEW016CB

Frequencies (top)

Verify before use: may be inaccurate or out of date.

A/G: 122.6 MHz (A/G VOICE RDO)
AFIS: 658.6 MHz (AFIS)
TWR: 118.3 MHz (TWR)

Runways (top)

03/21: 8,202 x 148 ft (2,500 x 45 m) — paved — lighted

Latest comments (top)

No comments yet for Niamtougou International Airport

More... (top)

See also NOTAMs and nearby airports and navaids, or visit the Niamtougou International Airport page at the main OurAirports website..